Location: CNYAC Observatory
(43.2150°N, 74.9500°W)
Time: 08:47:45
(UTC-04:00)

Daily predictions for brighter satellites

Satellite Brightness Start Highest point End
(mag) Time Altitude Azimuth Time Altitude Azimuth Time Altitude Azimuth
MTI 4.0 18:32:17 10° NNE 18:35:25 46° E 18:38:30 10° S
Cosmos 1500 Rocket 4.0 18:32:09 10° N 18:36:16 39° ENE 18:40:18 10° SSE
Cosmos 1624 Rocket 4.4 18:36:50 10° NNW 18:42:02 70° WSW 18:47:14 10° S
CZ-4 R/B 1.7 18:39:05 10° S 18:43:17 80° WSW 18:47:28 10° NNW
Cosmos 1626 2.1 18:40:25 10° N 18:44:08 62° E 18:47:50 10° SSE
SL-14 R/B 4.5 18:40:32 10° NNW 18:44:14 47° W 18:47:57 10° SSW
CZ-2C R/B 3.7 18:40:24 10° NNE 18:44:57 89° ENE 18:49:25 10° SSW
Cosmos 2366 rocket 4.0 18:39:34 10° S 18:45:45 73° E 18:51:55 10° NNE
BREEZE-M DEB (TANK) 2.3 18:44:04 10° SSW 18:45:59 25° SE 18:47:43 11° E
ALOS 2.9 18:43:36 10° SE 18:47:45 33° ENE 18:51:56 10° N
Cosmos 1420 Rocket 4.5 18:45:00 10° N 18:50:02 41° ENE 18:55:00 10° SE
Cosmos 2360 Rocket 2.2 18:46:01 10° NNW 18:51:41 69° ENE 18:57:19 10° SSE
APEX 4.3 18:52:14 10° SSE 18:54:25 17° ESE 18:55:47 13° ENE
COSMOS 2428 3.3 18:49:40 10° N 18:54:52 35° NE 19:00:02 10° ESE
Thor Agena Rocket 4.5 18:52:50 10° NE 18:56:58 24° E 19:01:03 10° SSE
Cosmos 2333 Rocket 3.5 18:53:24 10° N 18:57:49 22° NE 19:01:34 12° E
SL-8 Rocket 4.4 18:52:57 10° SSW 18:59:04 68° W 19:05:19 10° N
Cosmos 2322 Rocket 3.6 18:54:24 10° NW 18:59:41 43° WSW 19:04:56 10° S
COSMO-SKYMED 1 2.6 18:56:07 10° NNE 19:00:27 63° ESE 19:04:45 10° S
BREEZE-M DEB (TANK) 3.7 18:56:48 10° WNW 19:00:43 74° NNE 19:15:55 10° ESE
Cosmos 1833 4.2 18:55:25 10° SSW 19:01:05 76° ESE 19:06:44 10° NNE
MONITOR-E 4.0 18:58:29 10° SSE 19:01:33 70° ENE 19:04:38 10° N
Cosmos 2219 4.1 18:59:14 10° SSE 19:04:01 28° ESE 19:08:49 10° NE
Sich 1 4.4 19:02:24 10° NNE 19:05:32 19° ENE 19:07:31 14° ESE
Abrixas rocket 3.4 19:09:50 10° WNW 19:12:53 33° N 19:14:57 17° NE
Cosmos 1805 Rocket 4.2 19:10:50 10° N 19:14:50 33° ENE 19:18:50 10° SE
Cosmos 1315 Rocket 2.7 19:12:52 10° N 19:16:57 75° E 19:21:03 10° SSE
FENGYUN 3A 3.6 19:12:35 10° SSE 19:17:55 65° ENE 19:23:18 10° N
EO 1 Del DPAF 3.9 19:16:31 10° N 19:20:19 58° WNW 19:24:05 10° SSW
Cosmos 44 3.5 19:16:18 10° S 19:20:22 39° ESE 19:23:08 18° NE
Meteor 2-1 Rocket 4.3 19:16:29 10° S 19:22:17 87° W 19:28:14 10° N
Cosmos 1821 Rocket 4.2 19:16:40 10° SSE 19:22:29 47° E 19:28:26 10° NNE
Cosmos 1666 Rocket 4.4 19:19:57 10° NNE 19:23:41 27° ENE 19:25:01 23° ESE
Cosmos 2322 3.8 19:18:42 10° NNW 19:24:28 83° WSW 19:30:10 10° SSE
YAOGAN 1 4.0 19:20:34 10° S 19:24:38 40° W 19:28:45 10° NNW
Cosmos 1934 Rocket 4.4 19:20:38 10° SSE 19:26:25 39° E 19:32:14 10° NNE
USA 267 4.1 19:25:18 20° E 19:28:19 27° SE 19:33:41 10° S
Cosmos 2151 4.0 19:26:57 10° NNW 19:31:06 49° W 19:35:11 10° SSW
Cosmos 1633 Rocket 3.9 19:27:22 10° NNE 19:31:09 27° ENE 19:31:28 27° E
Cosmos 1269 Rocket 4.1 19:27:37 10° S 19:32:41 50° ESE 19:37:47 10° NNE
DMSP B5D1-3 4.4 19:28:08 10° NNE 19:33:18 82° ESE 19:38:27 10° SSW
SPOT 3 Rocket 4.1 19:29:28 10° S 19:34:36 63° WSW 19:39:48 10° NNW
RESURS DK-1 3.8 19:36:02 10° NW 19:39:54 40° WSW 19:43:45 10° S
Cosmos 2219 Rocket 2.4 19:34:54 10° NNW 19:40:20 48° ENE 19:43:16 25° ESE
Lacrosse 5 rocket 3.8 19:38:39 10° NW 19:40:56 14° N 19:43:10 10° NNE
SJ-6B 3.0 19:40:35 40° E 19:41:01 42° ENE 19:44:34 10° N
Cosmos 468 4.5 19:36:05 10° SSW 19:41:18 85° WNW 19:46:34 10° NNE
FREGAT/IRIS 2.4 19:42:27 63° E 19:42:35 64° ENE 19:45:33 10° N
Cosmos 44 Rocket 3.1 19:39:15 10° SSW 19:43:54 67° ESE 19:46:44 23° NE
SL-8 R/B 3.9 19:40:43 10° WSW 19:45:31 69° NNW 19:47:49 30° NE
Meteor 2-10 4.2 19:42:25 10° SSE 19:47:10 44° E 19:52:00 10° NNE
Cosmos 1726 1.9 19:45:28 10° S 19:49:08 71° E 19:52:49 10° NNE
Cosmos 2098 Rocket 3.3 19:45:23 10° S 19:49:47 81° E 19:55:31 10° N
Cosmos 2123 Rocket 4.1 19:44:37 10° N 19:50:43 54° ENE 19:56:50 10° SSE
Atlas Centaur 2 4.0 19:49:09 10° SW 19:52:10 16° S 19:54:55 12° SSE
Gbstr 26 Del rocket 3.6 19:50:46 10° NW 19:55:52 76° NNE 19:58:17 38° ESE
Cosmos 1605 Rocket 4.2 19:51:03 10° SSE 19:56:46 44° E 20:02:30 10° NNE
CSL-04 DEB 4.3 19:56:23 53° ESE 19:56:58 60° ENE 20:00:57 10° N
Aureole 2 Rocket 2.6 19:54:02 10° NNW 19:57:55 68° ENE 19:58:14 64° E
Spot 2 Rocket 4.4 20:00:23 31° NE 20:00:23 31° NE 20:04:02 10° N
Cosmos 2221 3.3 19:55:47 10° SSW 20:00:00 52° W 20:04:17 10° N
Cosmos 2333 4.3 19:54:26 10° NNW 20:00:11 80° WSW 20:05:29 12° SSE
USA 234 4.2 20:02:15 26° NE 20:04:40 34° NNE 20:10:24 10° NW
CZ-4C R/B 2.0 20:00:10 10° SSW 20:05:20 79° ESE 20:08:29 28° NE
Cosmos 1110 Rocket 4.0 20:01:48 10° NNW 20:07:04 57° ENE 20:07:45 52° E
BREEZE-M DEB (TANK) 4.3 20:06:20 10° WNW 20:07:09 19° WNW 20:07:09 19° WNW
H-2A R/B 3.1 20:07:33 20° S 20:10:06 64° W 20:14:01 10° NNW
Iridium 4 Rocket 4.4 20:06:52 10° SSW 20:12:18 56° W 20:18:04 10° N
In-Cosmos 22 Rocket 4.1 20:07:11 10° N 20:12:54 69° ENE 20:15:17 36° SSE
Cosmos 2237 Rocket 2.4 20:07:31 10° NNW 20:13:03 48° ENE 20:13:12 48° ENE
Cosmos 2084 4.2 20:11:08 10° NNW 20:13:42 37° N 20:13:42 37° N
Cosmos 2227 Rocket 3.9 20:15:58 10° S 20:17:27 18° S 20:17:27 18° S
Resurs 01 Rocket 2.8 20:23:46 31° N 20:23:46 31° N 20:26:12 10° N
SL-16 R/B 3.6 20:18:31 10° N 20:21:48 24° NNE 20:21:48 24° NNE
Meteor 2-3 Rocket 4.3 20:18:36 10° N 20:22:51 40° NE 20:22:51 40° NE
ALOS 4.4 20:21:17 10° SSW 20:25:12 26° W 20:29:09 10° NW
Cosmos 1447 Rocket 4.5 20:23:38 10° N 20:29:40 59° ENE 20:29:40 59° ENE
Envisat 3.5 20:35:33 48° N 20:35:33 48° N 20:39:18 10° N
Cosmos 1980 3.6 20:31:01 10° NNW 20:36:26 76° NNE 20:36:26 76° NNE
NOSS 0 Rocket 3.8 20:30:34 10° NNW 20:36:46 84° WSW 20:37:56 61° SSE
Meteor 2-2 Rocket 4.1 20:32:57 10° S 20:38:40 85° W 20:44:21 10° N
COSMOS 2428 4.0 20:33:57 10° NW 20:39:07 37° WSW 20:44:03 11° S
Cosmos 2333 Rocket 2.4 20:36:53 10° NNW 20:42:36 67° WSW 20:43:38 56° SSW
Sich 1 4.3 20:39:18 10° NNW 20:43:23 39° W 20:44:35 32° SW
Cosmos 2219 4.2 20:42:25 10° SW 20:47:55 46° WNW 20:53:26 10° NNE
ATLAS 5 CENTAUR R/B 4.5 20:47:54 10° N 20:49:30 12° NNE 20:49:30 12° NNE
BREEZE-M DEB (TANK) 3.5 20:46:15 10° WNW 20:52:04 51° NW 20:52:04 51° NW
USA 267 3.4 21:12:42 69° WSW 21:12:42 69° WSW 21:18:20 10° SW
Cosmos 2219 Rocket 4.0 21:19:28 10° NW 21:23:58 25° WSW 21:25:02 24° WSW
USA 234 4.3 21:49:37 40° NW 21:49:37 40° NW 21:53:38 10° NW
CZ-4C R/B 4.3 21:50:09 10° W 21:53:44 23° NW 21:53:44 23° NW
Cosmos 2237 Rocket 4.3 21:52:10 10° NW 21:55:03 22° WNW 21:55:03 22° WNW
